www.pogodaiklimat.ru

Погода и климат >> Архив погоды >> Италия >> Дечимоманну


ПОГОДА в Дечимоманну

  • Прогноз погоды в Дечимоманну
  • Монитор погоды в Дечимоманну

АРХИВ ПОГОДЫ в Дечимоманну

Время (UTC), дата Ветер
(напр.,м/с)
 
Видим.   Явления Облачность Т
(С)
Тd
(С)
f
(%)
Тe
(С)
Тes
(С)
Комфортность P
(гПа)
Po
(гПа)
Тmin
(С)
Tmax
(С)
R
(мм)
R24
(мм)
S
(см)
09 13.04 СЗ 6 10 км 6/6 600 м
[Cu Sc Ac trans]
+14.2 +11.2 82 +12 +14 1012.9 1010.0
12 13.04 СЗ 7 12 км 8/8 450 м
[Cu med, cong Ac trans]
+15.4 +11.6 78 +14 +15 1012.9 1010.0
15 13.04 СЗ 7 10 км 9/9 150 м
[Cu med, cong Ci fib]
+15.0 +10.0 72 +13 +13 1012.4 1009.5
18 13.04 СЗ 6 12 км 6/6 540 м
[Cu Sc Ci fib]
+14.0 +11.5 85 +12 +12 1012.9 1010.0 +16.0
21 13.04 СЗ 3 15 км 3/3 1200 м
[Sc]
+11.0 +9.3 89 +9 +9 1014.3 1011.4
00 14.04 СЗ 1 12 км ясно +9.2 +7.2 87 +9 +9 1015.0 1012.1
03 14.04 С 2 12 км ясно +7.2 +5.5 89 +5 +5 1013.9 1011.0
06 14.04 С 2 10 км 8/4 300 м
[St As trans Ci fib]
+7.0 +5.2 88 +5 +6 1013.9 1011.0 +5.4
09 14.04 З 3 12 км 9/0 600 м
[Ci fib]
+15.0 +10.6 75 +14 +22 1013.8 1011.0
12 14.04 ЮЗ 9 20 км 8/3 750 м
[Cu med, cong Cc]
+18.2 +12.2 68 +17 +19 1012.5 1009.7
15 14.04 З 8 15 км 9/0 540 м
[Ci fib]
+17.0 +12.7 76 +16 +17 1011.7 1009.0
18 14.04 СЗ 5 12 км 9/4 900 м
[Cu med, cong Ac trans Ci fib]
+14.0 +9.0 72 +12 +12 1010.9 1008.1 +18.4
21 14.04 С 3 12 км 5/1 900 м
[Cu hum Ac trans Ci fib]
+12.0 +9.7 86 +10 +10 1012.0 1009.1
00 15.04 СЗ 3 12 км 4/1 900 м
[Cu med, cong Ac trans Ci fib]
+10.0 +8.3 89 +8 +8 1013.1 1010.2
03 15.04 СЗ 3 12 км 4/1 900 м
[Cu hum Ci fib]
+9.6 +7.7 88 +7 +7 1013.1 1010.2
06 15.04 СЗ 3 10 км 3/1 600 м
[Cu med, cong Ac trans]
+8.6 +7.1 90 +6 +7 1014.8 1011.9 +7.4
09 15.04 С 3 20 км 3/3 750 м
[Cu med, cong]
+15.0 +10.8 76 +14 +21 1015.8 1013.0
12 15.04 З 2 25 км 5/5 900 м
[Cu med, cong]
+19.6 +11.6 60 +22 +30 комфорт 1015.7 1013.0
15 15.04 ЮВ 7 30 км 4/4 750 м
[Cu Sc]
+19.0 +15.1 78 +20 +21 1015.6 1012.9
18 15.04 ЮВ 5 15 км 9/4 900 м
[Sc Ac trans Ci fib]
+15.0 +13.7 92 +13 +13 1017.1 1014.3 +21.6
21 15.04 ЮВ 3 14 км 8/3 900 м
[Sc Ci fib]
+13.0 +11.7 92 +12 +12 1018.3 1015.4
00 16.04 В 2 15 км 9/3 900 м
[Sc As op Ci fib]
+12.0 +10.7 92 +11 +11 1017.9 1015.0
03 16.04 СВ 2 14 км 8/3 900 м
[Sc As trans Ci fib]
+11.2 +9.6 90 +10 +10 1017.5 1014.6
06 16.04 Ю 1 12 км 8/6 750 м
[Cu Sc As trans]
+11.0 +9.4 90 +12 +12 1018.1 1015.2 +10.8
09 16.04 ЮВ 4 15 км 9/6 750 м
[Cu Sc Ci fib]
+16.8 +9.7 63 +16 +19 1018.7 1015.9
12 16.04 Ю 5 15 км 9/6 750 м
[Cu Sc Ci fib]
+18.4 +12.2 67 +19 +22 1018.1 1015.3
15 16.04 ЮВ 2 20 км 8/3 750 м
[Cu hum As trans Cs]
+17.2 +13.1 77 +18 +21 1017.8 1015.0
18 16.04 ЮВ 4 25 км 8/1 750 м
[Cu med, cong Ac As Ci fib]
+15.4 +13.8 90 +14 +14 1018.1 1015.3 +19.4
21 16.04 СВ 2 20 км 8/4 750 м
[Cu Sc Ac As Ci fib]
+12.2 +11.3 94 +11 +11 1019.5 1016.6
00 17.04 В 2 12 км 4/0
[Ci fib]
+9.6 +8.4 92 +8 +8 1019.6 1016.7
03 17.04 С 2 12 км ясно +7.8 +6.4 91 +6 +6 1019.0 1016.1
06 17.04 С 1 12 км 3/3 180 м
[St]
+8.2 +6.7 90 +7 +8 1019.6 1016.7 +7.0
09 17.04 Ю 2 20 км ясно +18.0 +12.9 72 +19 +32 опасность
простуды
1019.8 1017.0
12 17.04 ЮВ 5 15 км 3/3 1200 м
[Sc diur, vesp]
+20.2 +15.6 75 +23 +29 комфорт 1018.9 1016.1
15 17.04 Ю 7 20 км 5/3 1050 м
[Sc diur, vesp Ci fib]
+19.0 +17.0 88 +20 +21 1018.2 1015.4
18 17.04 ЮВ 5 15 км 3/3 1050 м
[Sc]
+15.6 +14.6 94 +14 +14 1018.1 1015.3 +20.6
21 17.04 ЮВ 2 15 км ясно +13.6 +12.0 90 +13 +13 1019.1 1016.2
00 18.04 СВ 2 15 км ясно +11.0 +9.4 90 +10 +10 1019.7 1016.8
03 18.04 СВ 1 12 км 3/0
[Ac trans]
+9.4 +7.8 90 +9 +9 1018.8 1015.9
06 18.04 СВ 1 15 км 5/3 750 м
[Cu hum As trans Cs]
+10.0 +8.1 88 +9 +10 1019.0 1016.2 +8.6
09 18.04 ЮВ 6 20 км 5/3 750 м
[Cu hum As trans Cs]
+18.2 +13.7 75 +18 +21 1019.1 1016.3
12 18.04 ЮВ 7 20 км 6/3 750 м
[Cu hum As trans Cs]
+19.6 +12.6 64 +21 +24 комфорт 1017.6 1014.9
15 18.04 В 6 20 км 8/3 750 м
[Cu hum Cs]
+19.2 +15.1 77 +20 +22 1017.4 1014.6
18 18.04 В 6 15 км 5/3 1050 м
[Cu hum Ci fib]
+16.4 +14.6 89 +15 +15 1017.8 1015.0 +20.8
21 18.04 В 4 15 км 4/0
[Ci fib]
+15.0 +13.4 90 +14 +14 1019.0 1016.1
00 19.04 В 5 10 км 4/0
[Ci fib]
+15.0 +13.4 90 +13 +13 1020.0 1017.1
03 19.04 В 5 12 км 4/0
[Ci fib]
+14.0 +12.4 90 +12 +12 1019.9 1017.0
06 19.04 В 5 18 км 8/3 900 м
[Sc Ci fib]
+15.2 +13.2 88 +14 +14 1020.6 1017.8 +13.8
09 19.04 ЮВ 8 20 км 6/3 900 м
[Sc Ci fib]
+19.6 +12.4 63 +20 +22 1021.8 1019.0
12 19.04 ЮВ 9 25 км 6/3 900 м
[Sc Ci fib]
+21.2 +11.8 55 +23 +24 комфорт 1022.1 1019.3
15 19.04 ЮВ 8 20 км 9/3 750 м
[Sc Cs]
+19.6 +12.1 62 +20 +21 1021.9 1019.1
18 19.04 В 4 20 км 9/0
[As trans Cs]
+16.4 +10.7 69 +16 +16 1022.0 1019.2 +21.4
21 19.04 В 3 15 км 10/0
[As trans Cs]
+13.6 +11.7 88 +12 +12 1022.7 1019.8
00 20.04 В 3 12 км 10/0
[As trans Cs]
+14.0 +11.5 85 +13 +13 1021.8 1018.9
03 20.04 В 4 12 км 9/0
[As trans Cs]
+14.4 +10.6 78 +13 +13 1020.5 1017.6

 

Местоположение метеостанции Дечимоманну (Италия): широта 39.35 долгота 8.97 высота над уровнем моря 28 м.

В архиве по умолчанию представлена погода в Дечимоманну за последнюю неделю. Архивные данные за месяц целиком и за предыдущие месяцы, начиная с января 2011 года, Вы можете получить, выбрав интересующий диапазон дат из раскрывающегося списка и нажав кнопку "Ввод!".


*Определитесь, кто Вы:
робот инопланетянин человек

Внимание! Время в таблицах - всемирное. Для получения местного времени необходимо прибавить поправку, которая равна 1 ч.

Смотрите также архив погоды в соседних городах и на ближайших метеорологических станциях:

Погода на Капо Карбонара (Италия) (55 км)
Погода на Капо Фраска (Италия) (62 км)
Погода на Капо Беллависто (Италия) (91 км)
Погода на Капо Кацция (Италия) (152 км)
Погода в Альгеро (Италия) (154 км)
Погода в Ольвии (Италия) (179 км)
Погода на Мысе Пертюзато (Франция) (225 км)
Погода в Фигари (Франция) (239 км)
Погода в Бизерте (Тунис) (245 км)
Погода в Табарке (Тунис) (268 км)

Пояснения к столбцам:

Ветер - указаны скорость ветра в м/с - средняя за 10 мин, порывы в срок и между сроками (в фигурных скобках) и направление, откуда дует ветер: С - северный, СВ - северо-восточный, В - восточный, ЮВ - юго-восточный, Ю - южный, ЮЗ - юго-западный, З - западный, СЗ - северо-западный.
Видимость - горизонтальная дальность видимости в метрах или километрах. При видимости от 1 до 10 км при отсутствии осадков обычно наблюдается дымка, при ухудшении видимости до 1 км и менее - туман. В сухую погоду видимость может ухудшаться дымом, пылью или мглою.
Явления - указаны атмосферные явления, наблюдавшиеся в срок или в последний час перед сроком; фигурными скобками обозначены явления, наблюдавшиеся между сроками (за 1-3 часа до срока); квадратными скобками обозначены град или гололедные отложения с указанием их диаметра в мм.
Облачность - указаны через наклонную черту общая и нижняя облачность в баллах и высота нижней границы облаков в метрах; квадратными скобками обозначены формы облаков: Ci - перистые, Cs - перисто-слоистые, Cc - перисто-кучевые, Ac - высококучевые, As - высокослоистые, Sc - слоисто-кучевые, Ns - слоисто-дождевые, Cu - кучевые, Cb - кучево-дождевые. Подробнее классификацию облаков см. в Атласе облаков (PDF).
T - Температура воздуха - температура, измеренная на высоте 2 м над землей.
Td - Температура точки росы - температура, при понижении до которой содержащийся в воздухе водяной пар достигнет насыщения.
f - Относительная влажность воздуха - влажноcть воздуха, измеренная на высоте 2 м над землей.
Te - Эффективная температура - температура, которую ощущает одетый по сезону человек в тени. Характеристика душности погоды. При расчете учитывается влияние влажности воздуха и скорости ветра на теплоощущения человека.
Tes - Эффективная температура на солнце - температура, которую ощущает человек, с поправкой на солнечный нагрев. Характеристика знойности погоды. Зависит от высоты солнца над горизонтом, облачности и скорости ветра. Ночью, в пасмурную погоду, а также при ветре 12 м/с и более поправка равна нулю.
P - Атмосферное давление - приведенное к уровню моря атмосферное давление.
Po - Атмосферное давление - измеренное на уровне метеостанции атмосферное давление.
Tmin - Минимальная температура - минимум температуры воздуха на высоте 2 м над землей.
Tmax - Максимальная температура - максимум температуры воздуха на высоте 2 м над землей.
R - Количество осадков - Количество выпавших осадков за период времени, мм. При наведении курсора мыши на число - период времени, за который выпало указанное количество осадков.
R24 - Количество осадков - Количество выпавших осадков за 24 часа, мм.
S - Снежный покров - Высота снежного покрова, см. При наведении курсора мыши на число - состояние снежного покрова и степень покрытия местности в баллах.